User: anonymous   Login
Location: Unspecified
(33.6439°N, 0.0000°E)
Time: 19:21:08
(UTC+00:00)
Language:

N. Korean satellite - Orbit

View from above orbital plane
View from above orbital plane
View from above satellite
View from above satellite

Ground track
Ground track

The orbit data is extracted from the following two-line orbital elements,

1 39026U 12072A   20220.56894290 +.00001677 +00000-0 +61395-4 0  9990
2 39026 097.2248 215.8584 0038916 063.5010 297.0213 15.28718800425059
Epoch (UTC): 07 August 2020 13:39:16
Eccentricity: 0.0038916
inclination: 97.2248°
perigee height: 453 km
apogee height: 506 km
right ascension of ascending node: 215.8584°
argument of perigee: 63.5010°
revolutions per day: 15.28718800
mean anomaly at epoch: 297.0213°
orbit number at epoch: 42505

The dashed part of the orbit path shows where the satellite is in the earth's shadow,  

DLR